Time,TemperatureF,DewpointF,PressureIn,WindDirection,WindDirectionDegrees,WindSpeedMPH,WindSpeedGustMPH,Humidity,HourlyPrecipIn,Conditions,Clouds,dailyrainin,SoftwareType,DateUTC
2013-10-27 00:02:00,38.2,36.0,29.82,SW,234,0.0,-999.0,93,-99.99,,,0.00,weatherlink.com 1.10,2013-10-27 04:02:00,
2013-10-27 00:17:00,38.3,37.0,29.82,WSW,258,0.0,-999.0,93,-99.99,,,0.00,weatherlink.com 1.10,2013-10-27 04:17:00,
2013-10-27 00:32:00,38.5,37.0,29.82,SSW,206,0.0,-999.0,93,-99.99,,,0.00,weatherlink.com 1.10,2013-10-27 04:32:00,
2013-10-27 00:47:00,38.5,37.0,29.82,SSW,196,0.0,-999.0,93,-99.99,,,0.00,weatherlink.com 1.10,2013-10-27 04:47:00,
2013-10-27 01:02:00,38.5,37.0,29.82,SW,218,0.0,-999.0,94,-99.99,,,0.00,weatherlink.com 1.10,2013-10-27 05:02:00,
2013-10-27 01:17:00,38.6,37.0,29.82,WSW,256,0.0,-999.0,94,-99.99,,,0.00,weatherlink.com 1.10,2013-10-27 05:17:00,
2013-10-27 01:32:00,38.7,37.0,29.82,West,265,0.0,-999.0,94,-99.99,,,0.00,weatherlink.com 1.10,2013-10-27 05:32:00,
2013-10-27 01:47:00,38.7,37.0,29.83,South,186,5.0,-999.0,94,-99.99,,,0.00,weatherlink.com 1.10,2013-10-27 05:47:00,
2013-10-27 02:02:00,38.6,37.0,29.83,SSW,209,0.0,-999.0,94,-99.99,,,0.00,weatherlink.com 1.10,2013-10-27 06:02:00,
2013-10-27 02:17:00,38.5,37.0,29.84,SW,219,0.0,-999.0,93,-99.99,,,0.00,weatherlink.com 1.10,2013-10-27 06:17:00,
2013-10-27 02:32:00,38.3,37.0,29.84,SSE,165,2.0,-999.0,93,-99.99,,,0.00,weatherlink.com 1.10,2013-10-27 06:32:00,
2013-10-27 02:47:00,38.3,37.0,29.85,West,261,3.0,-999.0,93,-99.99,,,0.00,weatherlink.com 1.10,2013-10-27 06:47:00,
2013-10-27 03:02:00,38.4,37.0,29.85,WNW,288,5.0,-999.0,94,-99.99,,,0.00,weatherlink.com 1.10,2013-10-27 07:02:00,
2013-10-27 03:17:00,38.7,37.0,29.86,West,269,3.0,-999.0,94,-99.99,,,0.00,weatherlink.com 1.10,2013-10-27 07:17:00,
2013-10-27 03:32:00,38.9,37.0,29.86,WSW,253,0.0,-999.0,94,-99.99,,,0.00,weatherlink.com 1.10,2013-10-27 07:32:00,
2013-10-27 03:47:00,38.7,37.0,29.86,SW,229,1.0,-999.0,93,-99.99,,,0.00,weatherlink.com 1.10,2013-10-27 07:47:00,
2013-10-27 04:02:00,38.7,37.0,29.86,West,261,1.0,-999.0,93,-99.99,,,0.00,weatherlink.com 1.10,2013-10-27 08:02:00,
2013-10-27 04:17:00,38.5,37.0,29.86,WSW,241,1.0,-999.0,93,-99.99,,,0.00,weatherlink.com 1.10,2013-10-27 08:17:00,
2013-10-27 04:32:00,38.3,36.0,29.87,West,281,0.0,-999.0,92,-99.99,,,0.00,weatherlink.com 1.10,2013-10-27 08:32:00,
2013-10-27 04:47:00,38.2,36.0,29.88,WSW,247,1.0,-999.0,93,-99.99,,,0.00,weatherlink.com 1.10,2013-10-27 08:47:00,
2013-10-27 05:02:00,38.2,36.0,29.88,WSW,255,5.0,-999.0,93,-99.99,,,0.00,weatherlink.com 1.10,2013-10-27 09:02:00,
2013-10-27 05:17:00,38.2,36.0,29.89,West,269,1.0,-999.0,93,-99.99,,,0.00,weatherlink.com 1.10,2013-10-27 09:17:00,
2013-10-27 05:32:00,37.8,36.0,29.89,SSW,213,0.0,-999.0,92,-99.99,,,0.00,weatherlink.com 1.10,2013-10-27 09:32:00,
2013-10-27 05:47:00,37.3,35.0,29.89,SW,215,0.0,-999.0,92,-99.99,,,0.00,weatherlink.com 1.10,2013-10-27 09:47:00,
2013-10-27 06:02:00,37.0,35.0,29.89,West,263,0.0,-999.0,92,-99.99,,,0.00,weatherlink.com 1.10,2013-10-27 10:02:00,
2013-10-27 06:17:00,36.7,35.0,29.90,West,266,1.0,-999.0,92,-99.99,,,0.00,weatherlink.com 1.10,2013-10-27 10:17:00,
2013-10-27 06:32:00,36.4,34.0,29.91,WSW,242,0.0,-999.0,92,-99.99,,,0.00,weatherlink.com 1.10,2013-10-27 10:32:00,
2013-10-27 06:47:00,36.1,34.0,29.91,SW,233,0.0,-999.0,93,-99.99,,,0.00,weatherlink.com 1.10,2013-10-27 10:47:00,
2013-10-27 07:02:00,35.8,34.0,29.91,WSW,247,0.0,-999.0,93,-99.99,,,0.00,weatherlink.com 1.10,2013-10-27 11:02:00,
2013-10-27 07:17:00,35.8,34.0,29.92,WSW,238,0.0,-999.0,93,-99.99,,,0.00,weatherlink.com 1.10,2013-10-27 11:17:00,
2013-10-27 07:32:00,36.0,35.0,29.93,SW,231,0.0,-999.0,94,-99.99,,,0.00,weatherlink.com 1.10,2013-10-27 11:32:00,
2013-10-27 07:47:00,36.2,35.0,29.93,WSW,247,0.0,-999.0,94,-99.99,,,0.00,weatherlink.com 1.10,2013-10-27 11:47:00,
2013-10-27 08:02:00,36.4,35.0,29.94,West,261,0.0,-999.0,94,-99.99,,,0.00,weatherlink.com 1.10,2013-10-27 12:02:00,
2013-10-27 08:17:00,36.6,35.0,29.94,NW,319,4.0,-999.0,94,-99.99,,,0.00,weatherlink.com 1.10,2013-10-27 12:17:00,
2013-10-27 08:32:00,36.9,35.0,29.95,South,180,0.0,-999.0,94,-99.99,,,0.00,weatherlink.com 1.10,2013-10-27 12:32:00,
2013-10-27 08:47:00,37.2,36.0,29.95,WSW,250,0.0,-999.0,94,-99.99,,,0.00,weatherlink.com 1.10,2013-10-27 12:47:00,
2013-10-27 09:02:00,38.0,37.0,29.96,West,273,0.0,-999.0,94,-99.99,,,0.00,weatherlink.com 1.10,2013-10-27 13:02:00,
2013-10-27 09:17:00,38.5,37.0,29.96,WSW,253,0.0,-999.0,93,-99.99,,,0.00,weatherlink.com 1.10,2013-10-27 13:17:00,
2013-10-27 09:32:00,38.8,37.0,29.97,WSW,252,0.0,-999.0,93,-99.99,,,0.00,weatherlink.com 1.10,2013-10-27 13:32:00,
2013-10-27 09:47:00,39.4,37.0,29.97,SW,219,3.0,-999.0,92,-99.99,,,0.00,weatherlink.com 1.10,2013-10-27 13:47:00,
2013-10-27 10:02:00,39.8,37.0,29.98,SSW,197,0.0,-999.0,91,-99.99,,,0.00,weatherlink.com 1.10,2013-10-27 14:02:00,
2013-10-27 10:17:00,40.2,38.0,29.98,WSW,250,0.0,-999.0,91,-99.99,,,0.00,weatherlink.com 1.10,2013-10-27 14:17:00,
2013-10-27 10:32:00,40.4,38.0,29.98,NW,307,0.0,-999.0,89,-99.99,,,0.00,weatherlink.com 1.10,2013-10-27 14:32:00,
2013-10-27 10:47:00,41.0,38.0,29.98,SW,222,0.0,-999.0,88,-99.99,,,0.00,weatherlink.com 1.10,2013-10-27 14:47:00,
2013-10-27 11:02:00,42.3,38.0,29.99,WSW,242,0.0,-999.0,86,-99.99,,,0.00,weatherlink.com 1.10,2013-10-27 15:02:00,
2013-10-27 11:17:00,43.3,39.0,29.99,WSW,251,1.0,-999.0,83,-99.99,,,0.00,weatherlink.com 1.10,2013-10-27 15:17:00,
2013-10-27 11:32:00,43.8,39.0,29.99,WNW,294,0.0,-999.0,82,-99.99,,,0.00,weatherlink.com 1.10,2013-10-27 15:32:00,
2013-10-27 11:47:00,44.1,38.0,29.99,West,277,0.0,-999.0,80,-99.99,,,0.00,weatherlink.com 1.10,2013-10-27 15:47:00,
2013-10-27 12:02:00,44.5,38.0,30.00,WSW,248,0.0,-999.0,79,-99.99,,,0.00,weatherlink.com 1.10,2013-10-27 16:02:00,
2013-10-27 12:17:00,45.1,38.0,30.00,WNW,284,0.0,-999.0,77,-99.99,,,0.00,weatherlink.com 1.10,2013-10-27 16:17:00,
2013-10-27 12:32:00,45.0,37.0,30.00,West,261,4.0,-999.0,74,-99.99,,,0.00,weatherlink.com 1.10,2013-10-27 16:32:00,
2013-10-27 12:47:00,45.0,38.0,30.00,West,278,0.0,-999.0,75,-99.99,,,0.00,weatherlink.com 1.10,2013-10-27 16:47:00,
2013-10-27 13:02:00,45.5,38.0,29.99,SW,227,1.0,-999.0,74,-99.99,,,0.00,weatherlink.com 1.10,2013-10-27 17:02:00,
2013-10-27 13:18:00,46.2,37.0,29.99,West,274,0.0,-999.0,71,-99.99,,,0.00,weatherlink.com 1.10,2013-10-27 17:18:00,
2013-10-27 13:33:00,47.5,37.0,29.98,WSW,252,4.0,-999.0,68,-99.99,,,0.00,weatherlink.com 1.10,2013-10-27 17:33:00,
2013-10-27 13:48:00,48.1,38.0,29.98,WSW,256,2.0,-999.0,67,-99.99,,,0.00,weatherlink.com 1.10,2013-10-27 17:48:00,
2013-10-27 14:03:00,49.0,38.0,29.98,WSW,256,1.0,-999.0,66,-99.99,,,0.00,weatherlink.com 1.10,2013-10-27 18:03:00,
2013-10-27 14:18:00,48.1,38.0,29.98,NNW,333,0.0,-999.0,67,-99.99,,,0.00,weatherlink.com 1.10,2013-10-27 18:18:00,
2013-10-27 14:33:00,46.4,36.0,29.98,NW,323,0.0,-999.0,68,-99.99,,,0.00,weatherlink.com 1.10,2013-10-27 18:33:00,
2013-10-27 14:48:00,45.8,37.0,29.98,WSW,257,0.0,-999.0,70,-99.99,,,0.00,weatherlink.com 1.10,2013-10-27 18:48:00,
2013-10-27 15:03:00,46.1,38.0,29.98,WSW,244,2.0,-999.0,72,-99.99,,,0.00,weatherlink.com 1.10,2013-10-27 19:03:00,
2013-10-27 15:17:00,46.7,36.0,29.98,North,355,0.0,-999.0,67,-99.99,,,0.00,weatherlink.com 1.10,2013-10-27 19:17:00,
2013-10-27 15:32:00,46.7,35.0,29.99,SW,216,1.0,-999.0,64,-99.99,,,0.00,weatherlink.com 1.10,2013-10-27 19:32:00,
2013-10-27 15:47:00,46.3,35.0,30.00,WSW,240,1.0,-999.0,65,-99.99,,,0.00,weatherlink.com 1.10,2013-10-27 19:47:00,
2013-10-27 16:02:00,46.0,36.0,30.00,SW,229,0.0,-999.0,67,-99.99,,,0.00,weatherlink.com 1.10,2013-10-27 20:02:00,
2013-10-27 16:17:00,45.7,36.0,30.00,West,276,0.0,-999.0,70,-99.99,,,0.00,weatherlink.com 1.10,2013-10-27 20:17:00,
2013-10-27 16:32:00,45.3,37.0,30.00,West,275,1.0,-999.0,73,-99.99,,,0.00,weatherlink.com 1.10,2013-10-27 20:32:00,
2013-10-27 16:47:00,45.0,35.0,30.00,West,277,0.0,-999.0,67,-99.99,,,0.00,weatherlink.com 1.10,2013-10-27 20:47:00,
2013-10-27 17:02:00,44.8,36.0,30.01,SW,216,2.0,-999.0,71,-99.99,,,0.00,weatherlink.com 1.10,2013-10-27 21:02:00,
2013-10-27 17:17:00,44.3,36.0,30.01,WSW,242,2.0,-999.0,72,-99.99,,,0.00,weatherlink.com 1.10,2013-10-27 21:17:00,
2013-10-27 17:32:00,44.0,36.0,30.01,WSW,258,0.0,-999.0,73,-99.99,,,0.00,weatherlink.com 1.10,2013-10-27 21:32:00,
2013-10-27 17:47:00,43.6,36.0,30.01,South,174,2.0,-999.0,74,-99.99,,,0.00,weatherlink.com 1.10,2013-10-27 21:47:00,
2013-10-27 18:02:00,43.2,36.0,30.02,WSW,247,1.0,-999.0,75,-99.99,,,0.00,weatherlink.com 1.10,2013-10-27 22:02:00,
2013-10-27 18:17:00,43.0,36.0,30.03,West,277,0.0,-999.0,75,-99.99,,,0.00,weatherlink.com 1.10,2013-10-27 22:17:00,
2013-10-27 18:32:00,42.7,36.0,30.03,WSW,249,0.0,-999.0,76,-99.99,,,0.00,weatherlink.com 1.10,2013-10-27 22:32:00,
2013-10-27 18:47:00,42.5,35.0,30.03,SW,236,0.0,-999.0,76,-99.99,,,0.00,weatherlink.com 1.10,2013-10-27 22:47:00,
2013-10-27 19:02:00,42.2,35.0,30.03,WSW,248,0.0,-999.0,76,-99.99,,,0.00,weatherlink.com 1.10,2013-10-27 23:02:00,
2013-10-27 19:17:00,41.9,35.0,30.04,WSW,248,0.0,-999.0,76,-99.99,,,0.00,weatherlink.com 1.10,2013-10-27 23:17:00,
2013-10-27 19:32:00,41.8,35.0,30.04,WSW,248,0.0,-999.0,77,-99.99,,,0.00,weatherlink.com 1.10,2013-10-27 23:32:00,
2013-10-27 19:47:00,41.6,35.0,30.04,WSW,248,0.0,-999.0,77,-99.99,,,0.00,weatherlink.com 1.10,2013-10-27 23:47:00,
2013-10-27 20:02:00,41.4,35.0,30.04,WSW,248,0.0,-999.0,77,-99.99,,,0.00,weatherlink.com 1.10,2013-10-28 00:02:00,
2013-10-27 20:17:00,41.0,34.0,30.05,WSW,248,0.0,-999.0,77,-99.99,,,0.00,weatherlink.com 1.10,2013-10-28 00:17:00,
2013-10-27 20:32:00,40.3,34.0,30.05,WSW,248,0.0,-999.0,77,-99.99,,,0.00,weatherlink.com 1.10,2013-10-28 00:32:00,
2013-10-27 20:47:00,39.6,34.0,30.05,WSW,248,0.0,-999.0,80,-99.99,,,0.00,weatherlink.com 1.10,2013-10-28 00:47:00,
2013-10-27 21:02:00,39.5,34.0,30.05,WSW,247,0.0,-999.0,80,-99.99,,,0.00,weatherlink.com 1.10,2013-10-28 01:02:00,
2013-10-27 21:17:00,39.6,34.0,30.05,SSE,153,0.0,-999.0,80,-99.99,,,0.00,weatherlink.com 1.10,2013-10-28 01:17:00,
2013-10-27 21:32:00,39.8,34.0,30.05,SSE,155,0.0,-999.0,80,-99.99,,,0.00,weatherlink.com 1.10,2013-10-28 01:32:00,
2013-10-27 21:47:00,40.0,34.0,30.05,SSE,155,0.0,-999.0,79,-99.99,,,0.00,weatherlink.com 1.10,2013-10-28 01:47:00,
2013-10-27 22:02:00,39.8,34.0,30.05,SSE,155,0.0,-999.0,80,-99.99,,,0.00,weatherlink.com 1.10,2013-10-28 02:02:00,
2013-10-27 22:17:00,39.2,34.0,30.05,SSE,155,0.0,-999.0,81,-99.99,,,0.00,weatherlink.com 1.10,2013-10-28 02:17:00,
2013-10-27 22:32:00,38.7,34.0,30.06,SSE,155,0.0,-999.0,82,-99.99,,,0.00,weatherlink.com 1.10,2013-10-28 02:32:00,
2013-10-27 22:47:00,38.7,34.0,30.06,SSE,155,0.0,-999.0,84,-99.99,,,0.00,weatherlink.com 1.10,2013-10-28 02:47:00,
2013-10-27 23:02:00,38.9,35.0,30.06,SSE,155,0.0,-999.0,85,-99.99,,,0.00,weatherlink.com 1.10,2013-10-28 03:02:00,
2013-10-27 23:17:00,39.3,35.0,30.05,SSE,155,0.0,-999.0,85,-99.99,,,0.00,weatherlink.com 1.10,2013-10-28 03:17:00,
2013-10-27 23:32:00,39.6,36.0,30.06,SSE,159,0.0,-999.0,85,-99.99,,,0.00,weatherlink.com 1.10,2013-10-28 03:32:00,
2013-10-27 23:47:00,39.9,36.0,30.05,SSE,160,0.0,-999.0,84,-99.99,,,0.00,weatherlink.com 1.10,2013-10-28 03:47:00,